STARLINK-36721

Last updated on Wed Mar 25 2026 00:02:05 GMT+0000 (Coordinated Universal Time)

1 67916U 26036N 26083.50002314 -.02194587 00000+0 -73076-1 0 9991 2 67916 42.9991 161.5985 0001103 269.0755 224.4304 15.33914636 6027
UTC large
Height (km)
Speed (km/s)
/
Latitude / Longitude
Inclination (degrees)
Orbital Period (minutes)
Azimuth
Elevation
Range (km)
Doppler Factor

Next 0 passes for location: London (51.5072 / 0.1276)

Sorry there are no passes over London.